This is the latest recevied weather packets stored in our database for station/object JL1CBB-13. If no packets are shown the sender has not sent any weather packets the latest 10 day(s).
| Time | Temp. | Humidity | Pressure | Rain* | Wind** | Luminosity | Snow |
|---|---|---|---|---|---|---|---|
| 1777627958 | 19.44° C | 82% | 993 hPa | 0 mm | - | - | - |
| 1777627358 | 20° C | 82% | 994 hPa | 0 mm | - | - | - |
| 1777626758 | 20° C | 84% | 994 hPa | 0 mm | - | - | - |
| 1777626160 | 20° C | 84% | 994 hPa | 0 mm | - | - | - |
| 1777625560 | 20° C | 88% | 994 hPa | 0 mm | - | - | - |
| 1777624960 | 20.56° C | 90% | 994 hPa | 0 mm | - | - | - |
| 1777624360 | 20.56° C | 91% | 994 hPa | 1.02 mm | - | - | - |
| 1777623760 | 20.56° C | 92% | 995 hPa | 1.02 mm | - | - | - |
| 1777623159 | 20.56° C | 92% | 995 hPa | 1.02 mm | - | - | - |
| 1777622558 | 20.56° C | 94% | 995 hPa | 1.02 mm | - | - | - |
| 1777621959 | 20.56° C | 94% | 995 hPa | 1.02 mm | - | - | - |
| 1777621359 | 20.56° C | 92% | 994 hPa | 1.02 mm | - | - | - |
| 1777620759 | 21.11° C | 90% | 994 hPa | 0 mm | - | - | - |
| 1777620159 | 21.67° C | 90% | 995 hPa | 0 mm | - | - | - |
| 1777619559 | 21.67° C | 89% | 994 hPa | 0 mm | - | - | - |
| 1777618959 | 21.67° C | 90% | 994 hPa | 0 mm | - | - | - |
| 1777618359 | 21.11° C | 92% | 996 hPa | 0 mm | - | - | - |
| 1777617759 | 20.56° C | 92% | 996 hPa | 0 mm | - | - | - |
| 1777617159 | 20° C | 91% | 996 hPa | 0 mm | - | - | - |
| 1777616559 | 20° C | 92% | 997 hPa | 0 mm | - | - | - |
| 1777615958 | 20° C | 92% | 997 hPa | 0 mm | - | - | - |
| 1777615358 | 19.44° C | 92% | 997 hPa | 0 mm | - | - | - |
| 1777614758 | 20° C | 95% | 996 hPa | 0 mm | - | - | - |
| 1777614158 | 19.44° C | 97% | 997 hPa | 0 mm | - | - | - |
| 1777613558 | 18.89° C | 98% | 997 hPa | 0 mm | - | - | - |
* Rain latest hour (hover to see other rain measurements)
** Current wind speed in m/s (hover to see current wind gust speed)